K0OHU-1 Weather Reports


Display with metric or nautical units.
time (UTC)temp
F
wind
direction
speed
MPH
gust
MPH
rain 1hr
in
rain 24hr
in
rain mn
in
humidity
%
barometer
mb
20140421000248 68 300 2.0 16.0 0.00 0.00 0.00 32 1016.3
20140420234754 70 319 5.0 9.0 0.00 0.00 0.00 31 1015.6
20140420233303 72 213 1.0 7.0 0.00 0.00 0.00 29 1016.0
20140420231754 73 272 0.0 6.0 0.00 0.00 0.00 30 1015.4
20140420230303 74 243 0.0 6.0 0.00 0.00 0.00 28 1015.4
20140420224749 74 318 6.0 10.0 0.00 0.00 0.00 29 1015.7
20140420223304 74 272 0.0 7.0 0.00 0.00 0.00 28 1015.7
20140420221750 76 298 0.0 8.0 0.00 0.00 0.00 26 1015.2
20140420220259 75 171 0.0 6.0 0.00 0.00 0.00 27 1015.2
20140420214758 76 168 0.0 2.0 0.00 0.00 0.00 26 1015.5
20140420213259 74 168 0.0 8.0 0.00 0.00 0.00 27 1015.3
20140420211804 73 201 0.0 9.0 0.00 0.00 0.00 28 1016.1
20140420210256 74 227 2.0 6.0 0.00 0.00 0.00 27 1015.6
20140420204804 74 153 2.0 8.0 0.00 0.00 0.00 29 1015.5
20140420203253 74 145 1.0 7.0 0.00 0.00 0.00 28 1015.6
20140420201759 74 203 3.0 6.0 0.00 0.00 0.00 32 1016.4
20140420200252 72 169 1.0 5.0 0.00 0.00 0.00 34 1016.1
20140420194758 71 165 0.0 8.0 0.00 0.00 0.00 35 1016.4
20140420193307 69 175 3.0 8.0 0.00 0.00 0.00 35 1016.8
20140420191810 69 181 5.0 12.0 0.00 0.00 0.00 36 1017.1
20140420190259 69 241 6.0 13.0 0.00 0.00 0.00 36 1017.2
20140420184805 72 181 1.0 8.0 0.00 0.00 0.00 35 1017.1
20140420183257 73 207 0.0 7.0 0.00 0.00 0.00 32 1017.3
20140420181804 72 107 0.0 2.0 0.00 0.00 0.00 35 1017.4
20140420180256 71 56 0.0 6.0 0.00 0.00 0.00 38 1017.7
20140420174801 69 40 0.0 7.0 0.00 0.00 0.00 39 1017.4
20140420173310 68 51 0.0 0.0 0.00 0.00 0.00 41 1017.6
20140420171806 67 60 0.0 2.0 0.00 0.00 0.00 44 1018.2
20140420170308 63 159 0.0 0.0 0.00 0.00 0.00 48 1018.0
20140420164810 62 159 0.0 0.0 0.00 0.00 0.00 52 1018.0
20140420163259 60 159 0.0 0.0 0.00 0.00 0.00 53 1017.6
20140420161800 58 159 0.0 0.0 0.00 0.00 0.00 57 1018.1
20140420160259 57 159 0.0 2.0 0.00 0.00 0.00 59 1017.5
20140420154805 55 159 0.0 2.0 0.00 0.00 0.00 67 1017.7
20140420153255 54 159 0.0 1.0 0.00 0.00 0.00 70 1017.5
20140420151804 52 159 0.0 3.0 0.00 0.00 0.00 73 1017.8
20140420150253 51 159 0.0 1.0 0.00 0.00 0.00 77 1017.5
20140420144800 50 159 0.0 0.0 0.00 0.00 0.00 79 1017.9
20140420143253 49 159 0.0 0.0 0.00 0.00 0.00 80 1017.5
20140420133312 42 159 0.0 0.0 0.00 0.00 0.00 91 1017.4
20140420131757 41 159 0.0 0.0 0.00 0.00 0.00 91 1017.1
20140420124756 40 159 0.0 0.0 0.00 0.00 0.00 90 1016.8
20140420121753 41 159 0.0 0.0 0.00 0.00 0.00 89 1016.5
20140420114812 41 159 0.0 0.0 0.00 0.00 0.00 88 1015.8
20140420113302 42 159 0.0 0.0 0.00 0.00 0.00 87 1015.7
20140420110305 43 159 0.0 0.0 0.00 0.00 0.00 85 1015.9
20140420104811 44 159 0.0 0.0 0.00 0.00 0.00 84 1015.5
20140420094809 47 159 0.0 5.0 0.00 0.00 0.00 78 1015.7
20140420093301 47 158 0.0 7.0 0.00 0.00 0.00 80 1015.7
20140420091807 46 140 0.0 0.0 0.00 0.00 0.00 83 1015.9
20140420084803 47 137 0.0 0.0 0.00 0.00 0.00 84 1016.0
20140420083258 47 137 0.0 0.0 0.00 0.00 0.00 84 1016.3
20140420081803 48 137 0.0 0.0 0.00 0.00 0.00 83 1016.4
20140420080259 48 138 0.0 0.0 0.00 0.00 0.00 82 1016.7
20140420074805 49 138 0.0 0.0 0.00 0.00 0.00 82 1017.3
20140420071803 50 138 0.0 3.0 0.00 0.00 0.00 81 1017.3
20140420070309 50 132 0.0 4.0 0.00 0.00 0.00 82 1017.3
20140420064819 50 164 0.0 0.0 0.00 0.00 0.00 82 1017.5
20140420063308 50 164 0.0 0.0 0.00 0.00 0.00 81 1017.4
20140420061813 50 164 0.0 0.0 0.00 0.00 0.00 82 1017.6
20140420060314 50 164 0.0 0.0 0.00 0.00 0.00 84 1017.7
20140420054817 49 164 0.0 4.0 0.00 0.00 0.01 87 1018.2
20140420053309 49 176 0.0 0.0 0.00 0.00 0.01 87 1018.3
20140420051815 50 176 0.0 0.0 0.00 0.00 0.01 88 1017.9
20140420050325 50 176 0.0 0.0 0.00 0.00 0.01 89 1018.1
20140420044814 50 176 0.0 0.0 0.00 0.00 0.01 88 1018.6
20140420043323 50 176 0.0 0.0 0.00 0.00 0.01 87 1018.9
20140420041809 50 176 0.0 0.0 0.00 0.00 0.01 88 1019.0
20140420040323 50 176 0.0 2.0 0.00 0.00 0.01 88 1019.0
20140420034809 50 191 0.0 3.0 0.00 0.00 0.01 88 1018.6
20140420033318 51 200 0.0 6.0 0.00 0.00 0.01 88 1019.1
20140420031828 51 192 0.0 0.0 0.00 0.00 0.01 87 1019.0
20140420030317 52 192 2.0 7.0 0.00 0.00 0.01 85 1019.0
20140420024812 52 240 0.0 0.0 0.00 0.00 0.01 82 1019.0
20140420023325 52 240 0.0 0.0 0.00 0.00 0.01 79 1018.7
20140420021830 52 24 0.0 0.0 0.00 0.00 0.01 76 1018.1
20140420020320 53 24 0.0 0.0 0.00 0.00 0.01 74 1017.9
20140420014817 53 355 0.0 4.0 0.00 0.00 0.01 72 1017.8
20140420013329 53 45 0.0 2.0 0.00 0.00 0.01 71 1017.7
20140420011814 54 5 0.0 2.0 0.00 0.00 0.00 70 1017.6
20140420010324 54 204 0.0 5.0 0.00 0.00 0.00 68 1017.6
20140420004814 55 338 0.0 6.0 0.00 0.00 0.00 67 1017.5
20140420003324 55 210 0.0 4.0 0.00 0.00 0.00 67 1017.6
20140420001820 55 213 3.0 9.0 0.00 0.00 0.00 65 1017.6